Location: *
(48.7358°N, 0.3111°E)
Time: 17:28:34
(UTC+00:00)

NOSS 3-4 (C) - Pass Details

Date: 22 October 2019
Orbit: 908 x 1304 km, 63.4° (Epoch: 10 November)

Event Time Altitude Azimuth Distance (km) Brightness Sun altitude
Exits shadow 05:30:28 13° 265° (W) 2,462 5.0 -10.3°
Maximum altitude 05:35:34 37° 330° (NNW) 1,468 4.2 -9.5°
Drops below altitude 10° 05:41:39 10° 37° (NE) 2,839 6.4 -8.5°
Sets 05:44:38 0° 45° (NE) 3,858 7.2 -8.0°
